Year,Month,Day,Hour,Minute,Value (Times are PST for temperature in C)
2008,10,15,00,00,4.20
2008,10,15,00,01,4.10
2008,10,15,00,02,4.10
2008,10,15,00,03,4.00
2008,10,15,00,04,3.90
2008,10,15,00,05,3.90
2008,10,15,00,06,3.80
2008,10,15,00,07,3.70
2008,10,15,00,08,3.70
2008,10,15,00,09,3.70
2008,10,15,00,10,3.70
2008,10,15,00,11,3.60
2008,10,15,00,12,3.60
2008,10,15,00,13,3.60
2008,10,15,00,14,3.60
2008,10,15,00,15,3.60
2008,10,15,00,16,3.50
2008,10,15,00,17,3.50
2008,10,15,00,18,3.50
2008,10,15,00,19,3.60
2008,10,15,00,20,3.60
2008,10,15,00,21,3.60
2008,10,15,00,22,3.70
2008,10,15,00,23,3.70
2008,10,15,00,24,3.70
2008,10,15,00,25,3.70
2008,10,15,00,26,3.60
2008,10,15,00,27,3.60
2008,10,15,00,28,3.60
2008,10,15,00,29,3.70
2008,10,15,00,30,3.70
2008,10,15,00,31,3.80
2008,10,15,00,32,3.80
2008,10,15,00,33,3.90
2008,10,15,00,34,4.00
2008,10,15,00,35,4.00
2008,10,15,00,36,4.10
2008,10,15,00,37,4.20
2008,10,15,00,38,4.20
2008,10,15,00,39,4.20
2008,10,15,00,40,4.20
2008,10,15,00,41,4.20
2008,10,15,00,42,4.10
2008,10,15,00,43,4.10
2008,10,15,00,44,4.10
2008,10,15,00,45,4.00
2008,10,15,00,46,4.00
2008,10,15,00,47,3.90
2008,10,15,00,48,3.90
2008,10,15,00,49,3.90
2008,10,15,00,50,3.80
2008,10,15,00,51,3.80
2008,10,15,00,52,3.70
2008,10,15,00,53,3.70
2008,10,15,00,54,3.60
2008,10,15,00,55,3.60
2008,10,15,00,56,3.50
2008,10,15,00,57,3.50
2008,10,15,00,58,3.50
2008,10,15,00,59,3.50
2008,10,15,01,00,3.50
2008,10,15,01,01,3.50
2008,10,15,01,02,3.60
2008,10,15,01,03,3.70
2008,10,15,01,04,3.70
2008,10,15,01,05,3.80
2008,10,15,01,06,3.90
2008,10,15,01,07,3.90
2008,10,15,01,08,3.90
2008,10,15,01,09,3.90
2008,10,15,01,10,3.80
2008,10,15,01,11,3.70
2008,10,15,01,12,3.60
2008,10,15,01,13,3.50
2008,10,15,01,14,3.40
2008,10,15,01,15,3.40
2008,10,15,01,16,3.30
2008,10,15,01,17,3.30
2008,10,15,01,18,3.30
2008,10,15,01,19,3.20
2008,10,15,01,20,3.20
2008,10,15,01,21,3.20
2008,10,15,01,22,3.20
2008,10,15,01,23,3.10
2008,10,15,01,24,3.10
2008,10,15,01,25,3.10
2008,10,15,01,26,3.10
2008,10,15,01,27,3.10
2008,10,15,01,28,3.10
2008,10,15,01,29,3.10
2008,10,15,01,30,3.10
2008,10,15,01,31,3.10
2008,10,15,01,32,3.20
2008,10,15,01,33,3.20
2008,10,15,01,34,3.20
2008,10,15,01,35,3.20
2008,10,15,01,36,3.20
2008,10,15,01,37,3.30
2008,10,15,01,38,3.30
2008,10,15,01,39,3.30
2008,10,15,01,40,3.30
2008,10,15,01,41,3.30
2008,10,15,01,42,3.40
2008,10,15,01,43,3.40
2008,10,15,01,44,3.50
2008,10,15,01,45,3.50
2008,10,15,01,46,3.60
2008,10,15,01,47,3.70
2008,10,15,01,48,3.90
2008,10,15,01,49,4.00
2008,10,15,01,50,4.10
2008,10,15,01,51,4.20
2008,10,15,01,52,4.30
2008,10,15,01,53,4.40
2008,10,15,01,54,4.50
2008,10,15,01,55,4.60
2008,10,15,01,56,4.70
2008,10,15,01,57,4.70
2008,10,15,01,58,4.70
2008,10,15,01,59,4.70
2008,10,15,02,00,4.70
2008,10,15,02,01,4.70
2008,10,15,02,02,4.60
2008,10,15,02,03,4.60
2008,10,15,02,04,4.50
2008,10,15,02,05,4.40
2008,10,15,02,06,4.20
2008,10,15,02,07,4.20
2008,10,15,02,08,4.10
2008,10,15,02,09,4.00
2008,10,15,02,10,3.90
2008,10,15,02,11,3.80
2008,10,15,02,12,3.80
2008,10,15,02,13,3.70
2008,10,15,02,14,3.70
2008,10,15,02,15,3.60
2008,10,15,02,16,3.60
2008,10,15,02,17,3.60
2008,10,15,02,18,3.70
2008,10,15,02,19,3.70
2008,10,15,02,20,3.80
2008,10,15,02,21,3.80
2008,10,15,02,22,3.80
2008,10,15,02,23,3.80
2008,10,15,02,24,3.80
2008,10,15,02,25,3.80
2008,10,15,02,26,3.80
2008,10,15,02,27,3.80
2008,10,15,02,28,3.80
2008,10,15,02,29,3.70
2008,10,15,02,30,3.70
2008,10,15,02,31,3.60
2008,10,15,02,32,3.60
2008,10,15,02,33,3.60
2008,10,15,02,34,3.50
2008,10,15,02,35,3.50
2008,10,15,02,36,3.40
2008,10,15,02,37,3.40
2008,10,15,02,38,3.30
2008,10,15,02,39,3.30
2008,10,15,02,40,3.30
2008,10,15,02,41,3.20
2008,10,15,02,42,3.20
2008,10,15,02,43,3.20
2008,10,15,02,44,3.10
2008,10,15,02,45,3.10
2008,10,15,02,46,3.10
2008,10,15,02,47,3.00
2008,10,15,02,48,3.00
2008,10,15,02,49,2.90
2008,10,15,02,50,3.00
2008,10,15,02,51,3.00
2008,10,15,02,52,3.10
2008,10,15,02,53,3.20
2008,10,15,02,54,3.30
2008,10,15,02,55,3.40
2008,10,15,02,56,3.50
2008,10,15,02,57,3.50
2008,10,15,02,58,3.50
2008,10,15,02,59,3.60
2008,10,15,03,00,3.60
2008,10,15,03,01,3.60
2008,10,15,03,02,3.60
2008,10,15,03,03,3.60
2008,10,15,03,04,3.60
2008,10,15,03,05,3.60
2008,10,15,03,06,3.60
2008,10,15,03,07,3.50
2008,10,15,03,08,3.50
2008,10,15,03,09,3.50
2008,10,15,03,10,3.50
2008,10,15,03,11,3.50
2008,10,15,03,12,3.50
2008,10,15,03,13,3.40
2008,10,15,03,14,3.40
2008,10,15,03,15,3.40
2008,10,15,03,16,3.40
2008,10,15,03,17,3.40
2008,10,15,03,18,3.40
2008,10,15,03,19,3.40
2008,10,15,03,20,3.30
2008,10,15,03,21,3.30
2008,10,15,03,22,3.30
2008,10,15,03,23,3.30
2008,10,15,03,24,3.30
2008,10,15,03,25,3.30
2008,10,15,03,26,3.30
2008,10,15,03,27,3.30
2008,10,15,03,28,3.30
2008,10,15,03,29,3.30
2008,10,15,03,30,3.20
2008,10,15,03,31,3.20
2008,10,15,03,32,3.10
2008,10,15,03,33,3.00
2008,10,15,03,34,3.00
2008,10,15,03,35,2.90
2008,10,15,03,36,2.80
2008,10,15,03,37,2.80
2008,10,15,03,38,2.80
2008,10,15,03,39,2.90
2008,10,15,03,40,2.90
2008,10,15,03,41,2.90
2008,10,15,03,42,3.00
2008,10,15,03,43,3.10
2008,10,15,03,44,3.10
2008,10,15,03,45,3.20
2008,10,15,03,46,3.20
2008,10,15,03,47,3.20
2008,10,15,03,48,3.20
2008,10,15,03,49,3.10
2008,10,15,03,50,3.10
2008,10,15,03,51,3.10
2008,10,15,03,52,3.10
2008,10,15,03,53,3.10
2008,10,15,03,54,3.00
2008,10,15,03,55,3.00
2008,10,15,03,56,3.00
2008,10,15,03,57,3.00
2008,10,15,03,58,3.00
2008,10,15,03,59,3.00
2008,10,15,04,00,3.00
2008,10,15,04,01,3.00
2008,10,15,04,02,3.00
2008,10,15,04,03,3.00
2008,10,15,04,04,3.10
2008,10,15,04,05,3.20
2008,10,15,04,06,3.20
2008,10,15,04,07,3.30
2008,10,15,04,08,3.30
2008,10,15,04,09,3.40
2008,10,15,04,10,3.50
2008,10,15,04,11,3.50
2008,10,15,04,12,3.50
2008,10,15,04,13,3.60
2008,10,15,04,14,3.60
2008,10,15,04,15,3.50
2008,10,15,04,16,3.50
2008,10,15,04,17,3.50
2008,10,15,04,18,3.50
2008,10,15,04,19,3.40
2008,10,15,04,20,3.40
2008,10,15,04,21,3.30
2008,10,15,04,22,3.30
2008,10,15,04,23,3.20
2008,10,15,04,24,3.00
2008,10,15,04,25,2.90
2008,10,15,04,26,2.80
2008,10,15,04,27,2.70
2008,10,15,04,28,2.70
2008,10,15,04,29,2.70
2008,10,15,04,30,2.80
2008,10,15,04,31,2.80
2008,10,15,04,32,2.90
2008,10,15,04,33,2.90
2008,10,15,04,34,3.00
2008,10,15,04,35,3.00
2008,10,15,04,36,3.00
2008,10,15,04,37,3.00
2008,10,15,04,38,3.00
2008,10,15,04,39,3.00
2008,10,15,04,40,2.90
2008,10,15,04,41,2.90
2008,10,15,04,42,2.90
2008,10,15,04,43,2.90
2008,10,15,04,44,2.90
2008,10,15,04,45,2.90
2008,10,15,04,46,3.00
2008,10,15,04,47,3.00
2008,10,15,04,48,3.10
2008,10,15,04,49,3.20
2008,10,15,04,50,3.20
2008,10,15,04,51,3.20
2008,10,15,04,52,3.20
2008,10,15,04,53,3.20
2008,10,15,04,54,3.20
2008,10,15,04,55,3.20
2008,10,15,04,56,3.20
2008,10,15,04,57,3.20
2008,10,15,04,58,3.20
2008,10,15,04,59,3.20
2008,10,15,05,00,3.10
2008,10,15,05,01,3.10
2008,10,15,05,02,3.20
2008,10,15,05,03,3.20
2008,10,15,05,04,3.20
2008,10,15,05,05,3.20
2008,10,15,05,06,3.20
2008,10,15,05,07,3.20
2008,10,15,05,08,3.30
2008,10,15,05,09,3.30
2008,10,15,05,10,3.20
2008,10,15,05,11,3.10
2008,10,15,05,12,3.10
2008,10,15,05,13,3.00
2008,10,15,05,14,2.90
2008,10,15,05,15,2.80
2008,10,15,05,16,2.80
2008,10,15,05,17,2.70
2008,10,15,05,18,2.60
2008,10,15,05,19,2.50
2008,10,15,05,20,2.40
2008,10,15,05,21,2.40
2008,10,15,05,22,2.30
2008,10,15,05,23,2.30
2008,10,15,05,24,2.20
2008,10,15,05,25,2.20
2008,10,15,05,26,2.10
2008,10,15,05,27,2.10
2008,10,15,05,28,2.00
2008,10,15,05,29,1.90
2008,10,15,05,30,1.90
2008,10,15,05,31,1.80
2008,10,15,05,32,1.80
2008,10,15,05,33,1.70
2008,10,15,05,34,1.70
2008,10,15,05,35,1.70
2008,10,15,05,36,1.60
2008,10,15,05,37,1.60
2008,10,15,05,38,1.50
2008,10,15,05,39,1.50
2008,10,15,05,40,1.50
2008,10,15,05,41,1.50
2008,10,15,05,42,1.50
2008,10,15,05,43,1.50
2008,10,15,05,44,1.60
2008,10,15,05,45,1.60
2008,10,15,05,46,1.60
2008,10,15,05,47,1.60
2008,10,15,05,48,1.60
2008,10,15,05,49,1.60
2008,10,15,05,50,1.70
2008,10,15,05,51,1.70
2008,10,15,05,52,1.70
2008,10,15,05,53,1.80
2008,10,15,05,54,1.80
2008,10,15,05,55,1.80
2008,10,15,05,56,1.80
2008,10,15,05,57,1.90
2008,10,15,05,58,1.80
2008,10,15,05,59,1.90
2008,10,15,06,00,1.90
2008,10,15,06,01,1.90
2008,10,15,06,02,1.90
2008,10,15,06,03,1.90
2008,10,15,06,04,2.00
2008,10,15,06,05,2.10
2008,10,15,06,06,2.10
2008,10,15,06,07,2.30
2008,10,15,06,08,2.30
2008,10,15,06,09,2.40
2008,10,15,06,10,2.40
2008,10,15,06,11,2.40
2008,10,15,06,12,2.50
2008,10,15,06,13,2.50
2008,10,15,06,14,2.50
2008,10,15,06,15,2.60
2008,10,15,06,16,2.60
2008,10,15,06,17,2.60
2008,10,15,06,18,2.60
2008,10,15,06,19,2.70
2008,10,15,06,20,2.70
2008,10,15,06,21,2.70
2008,10,15,06,22,2.70
2008,10,15,06,23,2.70
2008,10,15,06,24,2.70
2008,10,15,06,25,2.80
2008,10,15,06,26,2.70
2008,10,15,06,27,2.80
2008,10,15,06,28,2.80
2008,10,15,06,29,2.80
2008,10,15,06,30,2.90
2008,10,15,06,31,2.90
2008,10,15,06,32,2.90
2008,10,15,06,33,2.90
2008,10,15,06,34,2.90
2008,10,15,06,35,2.90
2008,10,15,06,36,2.80
2008,10,15,06,37,2.80
2008,10,15,06,38,2.60
2008,10,15,06,39,2.50
2008,10,15,06,40,2.40
2008,10,15,06,41,2.30
2008,10,15,06,42,2.20
2008,10,15,06,43,2.10
2008,10,15,06,44,2.10
2008,10,15,06,45,2.00
2008,10,15,06,46,1.90
2008,10,15,06,47,1.90
2008,10,15,06,48,1.80
2008,10,15,06,49,1.80
2008,10,15,06,50,1.80
2008,10,15,06,51,1.70
2008,10,15,06,52,1.70
2008,10,15,06,53,1.70
2008,10,15,06,54,1.60
2008,10,15,06,55,1.60
2008,10,15,06,56,1.50
2008,10,15,06,57,1.40
2008,10,15,06,58,1.30
2008,10,15,06,59,1.30
2008,10,15,07,00,1.30
2008,10,15,07,01,1.30
2008,10,15,07,02,1.30
2008,10,15,07,03,1.30
2008,10,15,07,04,1.30
2008,10,15,07,05,1.30
2008,10,15,07,06,1.30
2008,10,15,07,07,1.30
2008,10,15,07,08,1.30
2008,10,15,07,09,1.30
2008,10,15,07,10,1.30
2008,10,15,07,11,1.40
2008,10,15,07,12,1.60
2008,10,15,07,13,1.70
2008,10,15,07,14,1.70
2008,10,15,07,15,1.80
2008,10,15,07,16,1.80
2008,10,15,07,17,1.90
2008,10,15,07,18,1.80
2008,10,15,07,19,1.80
2008,10,15,07,20,1.80
2008,10,15,07,21,1.80
2008,10,15,07,22,1.80
2008,10,15,07,23,1.80
2008,10,15,07,24,1.80
2008,10,15,07,25,1.80
2008,10,15,07,26,1.80
2008,10,15,07,27,1.80
2008,10,15,07,28,1.80
2008,10,15,07,29,1.80
2008,10,15,07,30,1.80
2008,10,15,07,31,1.80
2008,10,15,07,32,1.80
2008,10,15,07,33,1.80
2008,10,15,07,34,1.80
2008,10,15,07,35,1.80
2008,10,15,07,36,1.80
2008,10,15,07,37,1.80
2008,10,15,07,38,1.80
2008,10,15,07,39,1.80
2008,10,15,07,40,1.70
2008,10,15,07,41,1.70
2008,10,15,07,42,1.70
2008,10,15,07,43,1.70
2008,10,15,07,44,1.70
2008,10,15,07,45,1.70
2008,10,15,07,46,1.70
2008,10,15,07,47,1.80
2008,10,15,07,48,1.80
2008,10,15,07,49,1.80
2008,10,15,07,50,1.90
2008,10,15,07,51,1.90
2008,10,15,07,52,1.90
2008,10,15,07,53,1.90
2008,10,15,07,54,1.90
2008,10,15,07,55,1.90
2008,10,15,07,56,1.90
2008,10,15,07,57,1.90
2008,10,15,07,58,1.90
2008,10,15,07,59,1.90
2008,10,15,08,00,1.90
2008,10,15,08,01,1.90
2008,10,15,08,02,1.90
2008,10,15,08,03,1.90
2008,10,15,08,04,2.00
2008,10,15,08,05,2.00
2008,10,15,08,06,2.10
2008,10,15,08,07,2.10
2008,10,15,08,08,2.10
2008,10,15,08,09,2.10
2008,10,15,08,10,2.10
2008,10,15,08,11,2.10
2008,10,15,08,12,2.20
2008,10,15,08,13,2.20
2008,10,15,08,14,2.20
2008,10,15,08,15,2.20
2008,10,15,08,16,2.20
2008,10,15,08,17,2.30
2008,10,15,08,18,2.30
2008,10,15,08,19,2.30
2008,10,15,08,20,2.40
2008,10,15,08,21,2.40
2008,10,15,08,22,2.40
2008,10,15,08,23,2.40
2008,10,15,08,24,2.50
2008,10,15,08,25,2.50
2008,10,15,08,26,2.50
2008,10,15,08,27,2.50
2008,10,15,08,28,2.60
2008,10,15,08,29,2.60
2008,10,15,08,30,2.60
2008,10,15,08,31,2.70
2008,10,15,08,32,2.70
2008,10,15,08,33,2.70
2008,10,15,08,34,2.80
2008,10,15,08,35,2.80
2008,10,15,08,36,2.90
2008,10,15,08,37,3.00
2008,10,15,08,38,3.00
2008,10,15,08,39,3.10
2008,10,15,08,40,3.10
2008,10,15,08,41,3.20
2008,10,15,08,42,3.20
2008,10,15,08,43,3.20
2008,10,15,08,44,3.20
2008,10,15,08,45,3.20
2008,10,15,08,46,3.20
2008,10,15,08,47,3.20
2008,10,15,08,48,3.30
2008,10,15,08,49,3.30
2008,10,15,08,50,3.40
2008,10,15,08,51,3.50
2008,10,15,08,52,3.60
2008,10,15,08,53,3.60
2008,10,15,08,54,3.70
2008,10,15,08,55,3.70
2008,10,15,08,56,3.80
2008,10,15,08,57,3.80
2008,10,15,08,58,3.90
2008,10,15,08,59,4.00
2008,10,15,09,00,4.10
2008,10,15,09,01,4.10
2008,10,15,09,02,4.20
2008,10,15,09,03,4.30
2008,10,15,09,04,4.30
2008,10,15,09,05,4.30
2008,10,15,09,06,4.40
2008,10,15,09,07,4.40
2008,10,15,09,08,4.40
2008,10,15,09,09,4.40
2008,10,15,09,10,4.50
2008,10,15,09,11,4.50
2008,10,15,09,12,4.50
2008,10,15,09,13,4.60
2008,10,15,09,14,4.60
2008,10,15,09,15,4.60
2008,10,15,09,16,4.60
2008,10,15,09,17,4.70
2008,10,15,09,18,4.70
2008,10,15,09,19,4.70
2008,10,15,09,20,4.80
2008,10,15,09,21,4.80
2008,10,15,09,22,4.90
2008,10,15,09,23,4.90
2008,10,15,09,24,4.90
2008,10,15,09,25,5.00
2008,10,15,09,26,5.10
2008,10,15,09,27,5.10
2008,10,15,09,28,5.10
2008,10,15,09,29,5.20
2008,10,15,09,30,5.20
2008,10,15,09,31,5.30
2008,10,15,09,32,5.30
2008,10,15,09,33,5.40
2008,10,15,09,34,5.40
2008,10,15,09,35,5.50
2008,10,15,09,36,5.50
2008,10,15,09,37,5.50
2008,10,15,09,38,5.60
2008,10,15,09,39,5.60
2008,10,15,09,40,5.70
2008,10,15,09,41,5.70
2008,10,15,09,42,5.70
2008,10,15,09,43,5.70
2008,10,15,09,44,5.70
2008,10,15,09,45,5.80
2008,10,15,09,46,5.80
2008,10,15,09,47,5.80
2008,10,15,09,48,5.80
2008,10,15,09,49,5.80
2008,10,15,09,50,5.80
2008,10,15,09,51,5.80
2008,10,15,09,52,5.80
2008,10,15,09,53,5.80
2008,10,15,09,54,5.70
2008,10,15,09,55,5.70
2008,10,15,09,56,5.70
2008,10,15,09,57,5.70
2008,10,15,09,58,5.70
2008,10,15,09,59,5.70
2008,10,15,10,00,5.60
2008,10,15,10,01,5.60
2008,10,15,10,02,5.70
2008,10,15,10,03,5.70
2008,10,15,10,04,5.70
2008,10,15,10,05,5.70
2008,10,15,10,06,5.70
2008,10,15,10,07,5.70
2008,10,15,10,08,5.80
2008,10,15,10,09,5.80
2008,10,15,10,10,5.90
2008,10,15,10,11,5.90
2008,10,15,10,12,6.00
2008,10,15,10,13,6.10
2008,10,15,10,14,6.10
2008,10,15,10,15,6.20
2008,10,15,10,16,6.20
2008,10,15,10,17,6.30
2008,10,15,10,18,6.30
2008,10,15,10,19,6.40
2008,10,15,10,20,6.40
2008,10,15,10,21,6.40
2008,10,15,10,22,6.40
2008,10,15,10,23,6.50
2008,10,15,10,24,6.50
2008,10,15,10,25,6.60
2008,10,15,10,26,6.60
2008,10,15,10,27,6.70
2008,10,15,10,28,6.80
2008,10,15,10,29,6.90
2008,10,15,10,30,7.10
2008,10,15,10,31,7.20
2008,10,15,10,32,7.30
2008,10,15,10,33,7.40
2008,10,15,10,34,7.50
2008,10,15,10,35,7.60
2008,10,15,10,36,7.70
2008,10,15,10,37,7.80
2008,10,15,10,38,7.90
2008,10,15,10,39,8.00
2008,10,15,10,40,8.10
2008,10,15,10,41,8.20
2008,10,15,10,42,8.30
2008,10,15,10,43,8.40
2008,10,15,10,44,8.50
2008,10,15,10,45,8.70
2008,10,15,10,46,8.80
2008,10,15,10,47,8.90
2008,10,15,10,48,9.00
2008,10,15,10,49,9.10
2008,10,15,10,50,9.10
2008,10,15,10,51,9.10
2008,10,15,10,52,9.10
2008,10,15,10,53,9.10
2008,10,15,10,54,9.10
2008,10,15,10,55,9.10
2008,10,15,10,56,9.20
2008,10,15,10,57,9.20
2008,10,15,10,58,9.20
2008,10,15,10,59,9.20
2008,10,15,11,00,9.20
2008,10,15,11,01,9.10
2008,10,15,11,02,9.10
2008,10,15,11,03,9.10
2008,10,15,11,04,9.10
2008,10,15,11,05,9.00
2008,10,15,11,06,8.90
2008,10,15,11,07,8.90
2008,10,15,11,08,8.90
2008,10,15,11,09,8.90
2008,10,15,11,10,8.90
2008,10,15,11,11,9.00
2008,10,15,11,12,9.10
2008,10,15,11,13,9.10
2008,10,15,11,14,9.10
2008,10,15,11,15,9.20
2008,10,15,11,16,9.30
2008,10,15,11,17,9.30
2008,10,15,11,18,9.30
2008,10,15,11,19,9.30
2008,10,15,11,20,9.30
2008,10,15,11,21,9.30
2008,10,15,11,22,9.30
2008,10,15,11,23,9.30
2008,10,15,11,24,9.30
2008,10,15,11,25,9.30
2008,10,15,11,26,9.30
2008,10,15,11,27,9.30
2008,10,15,11,28,9.20
2008,10,15,11,29,9.10
2008,10,15,11,30,9.00
2008,10,15,11,31,8.90
2008,10,15,11,32,8.80
2008,10,15,11,33,8.70
2008,10,15,11,34,8.70
2008,10,15,11,35,8.70
2008,10,15,11,36,8.60
2008,10,15,11,37,8.60
2008,10,15,11,38,8.70
2008,10,15,11,39,8.70
2008,10,15,11,40,8.70
2008,10,15,11,41,8.80
2008,10,15,11,42,8.80
2008,10,15,11,43,8.80
2008,10,15,11,44,8.90
2008,10,15,11,45,8.90
2008,10,15,11,46,8.90
2008,10,15,11,47,8.90
2008,10,15,11,48,8.80
2008,10,15,11,49,8.80
2008,10,15,11,50,8.80
2008,10,15,11,51,8.80
2008,10,15,11,52,8.80
2008,10,15,11,53,8.80
2008,10,15,11,54,8.80
2008,10,15,11,55,8.80
2008,10,15,11,56,8.80
2008,10,15,11,57,8.80
2008,10,15,11,58,8.80
2008,10,15,11,59,8.80
2008,10,15,12,00,8.80
2008,10,15,12,01,8.90
2008,10,15,12,02,8.90
2008,10,15,12,03,8.90
2008,10,15,12,04,8.90
2008,10,15,12,05,9.00
2008,10,15,12,06,9.00
2008,10,15,12,07,9.10
2008,10,15,12,08,9.20
2008,10,15,12,09,9.20
2008,10,15,12,10,9.30
2008,10,15,12,11,9.50
2008,10,15,12,12,9.50
2008,10,15,12,13,9.60
2008,10,15,12,14,9.60
2008,10,15,12,15,9.70
2008,10,15,12,16,9.70
2008,10,15,12,17,9.70
2008,10,15,12,18,9.70
2008,10,15,12,19,9.70
2008,10,15,12,20,9.80
2008,10,15,12,21,9.80
2008,10,15,12,22,9.90
2008,10,15,12,23,9.80
2008,10,15,12,24,9.80
2008,10,15,12,25,9.80
2008,10,15,12,26,9.80
2008,10,15,12,27,9.80
2008,10,15,12,28,9.70
2008,10,15,12,29,9.80
2008,10,15,12,30,9.80
2008,10,15,12,31,9.80
2008,10,15,12,32,9.80
2008,10,15,12,33,9.70
2008,10,15,12,34,9.70
2008,10,15,12,35,9.70
2008,10,15,12,36,9.80
2008,10,15,12,37,9.80
2008,10,15,12,38,9.60
2008,10,15,12,39,9.50
2008,10,15,12,40,9.40
2008,10,15,12,41,9.40
2008,10,15,12,42,9.30
2008,10,15,12,43,9.30
2008,10,15,12,44,9.20
2008,10,15,12,45,9.10
2008,10,15,12,46,9.10
2008,10,15,12,47,9.10
2008,10,15,12,48,9.00
2008,10,15,12,49,9.00
2008,10,15,12,50,9.00
2008,10,15,12,51,9.00
2008,10,15,12,52,8.90
2008,10,15,12,53,8.90
2008,10,15,12,54,9.00
2008,10,15,12,55,9.00
2008,10,15,12,56,9.00
2008,10,15,12,57,9.00
2008,10,15,12,58,8.90
2008,10,15,12,59,8.90
2008,10,15,13,00,9.00
2008,10,15,13,01,9.10
2008,10,15,13,02,9.20
2008,10,15,13,03,9.30
2008,10,15,13,04,9.30
2008,10,15,13,05,9.30
2008,10,15,13,06,9.30
2008,10,15,13,07,9.20
2008,10,15,13,08,9.00
2008,10,15,13,09,9.00
2008,10,15,13,10,9.00
2008,10,15,13,11,8.90
2008,10,15,13,12,8.90
2008,10,15,13,13,9.00
2008,10,15,13,14,9.10
2008,10,15,13,15,9.10
2008,10,15,13,16,9.10
2008,10,15,13,17,9.10
2008,10,15,13,18,9.10
2008,10,15,13,19,9.10
2008,10,15,13,20,9.10
2008,10,15,13,21,9.20
2008,10,15,13,22,9.20
2008,10,15,13,23,9.30
2008,10,15,13,24,9.50
2008,10,15,13,25,9.40
2008,10,15,13,26,9.30
2008,10,15,13,27,9.30
2008,10,15,13,28,9.20
2008,10,15,13,29,9.10
2008,10,15,13,30,9.20
2008,10,15,13,31,9.20
2008,10,15,13,32,9.20
2008,10,15,13,33,9.20
2008,10,15,13,34,9.20
2008,10,15,13,35,9.10
2008,10,15,13,36,9.10
2008,10,15,13,37,9.10
2008,10,15,13,38,9.20
2008,10,15,13,39,9.20
2008,10,15,13,40,9.00
2008,10,15,13,41,8.90
2008,10,15,13,42,8.90
2008,10,15,13,43,8.80
2008,10,15,13,44,8.80
2008,10,15,13,45,8.90
2008,10,15,13,46,9.10
2008,10,15,13,47,9.20
2008,10,15,13,48,9.20
2008,10,15,13,49,9.10
2008,10,15,13,50,9.10
2008,10,15,13,51,9.00
2008,10,15,13,52,8.90
2008,10,15,13,53,8.90
2008,10,15,13,54,8.90
2008,10,15,13,55,8.90
2008,10,15,13,56,8.90
2008,10,15,13,57,9.00
2008,10,15,13,58,9.10
2008,10,15,13,59,9.10
2008,10,15,14,00,9.20
2008,10,15,14,01,9.10
2008,10,15,14,02,9.10
2008,10,15,14,03,9.10
2008,10,15,14,04,9.10
2008,10,15,14,05,9.00
2008,10,15,14,06,9.00
2008,10,15,14,07,8.90
2008,10,15,14,08,8.80
2008,10,15,14,09,8.80
2008,10,15,14,10,8.70
2008,10,15,14,11,8.70
2008,10,15,14,12,8.70
2008,10,15,14,13,8.70
2008,10,15,14,14,8.70
2008,10,15,14,15,8.70
2008,10,15,14,16,8.70
2008,10,15,14,17,8.60
2008,10,15,14,18,8.60
2008,10,15,14,19,8.60
2008,10,15,14,20,8.50
2008,10,15,14,21,8.50
2008,10,15,14,22,8.50
2008,10,15,14,23,8.50
2008,10,15,14,24,8.40
2008,10,15,14,25,8.50
2008,10,15,14,26,8.60
2008,10,15,14,27,8.60
2008,10,15,14,28,8.60
2008,10,15,14,29,8.60
2008,10,15,14,30,8.60
2008,10,15,14,31,8.60
2008,10,15,14,32,8.60
2008,10,15,14,33,8.60
2008,10,15,14,34,8.60
2008,10,15,14,35,8.50
2008,10,15,14,36,8.50
2008,10,15,14,37,8.50
2008,10,15,14,38,8.50
2008,10,15,14,39,8.50
2008,10,15,14,40,8.50
2008,10,15,14,41,8.50
2008,10,15,14,42,8.40
2008,10,15,14,43,8.40
2008,10,15,14,44,8.40
2008,10,15,14,45,8.40
2008,10,15,14,46,8.40
2008,10,15,14,47,8.30
2008,10,15,14,48,8.30
2008,10,15,14,49,8.30
2008,10,15,14,50,8.40
2008,10,15,14,51,8.40
2008,10,15,14,52,8.30
2008,10,15,14,53,8.30
2008,10,15,14,54,8.30
2008,10,15,14,55,8.30
2008,10,15,14,56,8.20
2008,10,15,14,57,8.30
2008,10,15,14,58,8.30
2008,10,15,14,59,8.20
2008,10,15,15,00,8.30
2008,10,15,15,01,8.30
2008,10,15,15,02,8.30
2008,10,15,15,03,8.30
2008,10,15,15,04,8.30
2008,10,15,15,05,8.30
2008,10,15,15,06,8.20
2008,10,15,15,07,8.20
2008,10,15,15,08,8.20
2008,10,15,15,09,8.20
2008,10,15,15,10,8.30
2008,10,15,15,11,8.30
2008,10,15,15,12,8.30
2008,10,15,15,13,8.30
2008,10,15,15,14,8.20
2008,10,15,15,15,8.20
2008,10,15,15,16,8.20
2008,10,15,15,17,8.20
2008,10,15,15,18,8.30
2008,10,15,15,19,8.20
2008,10,15,15,20,8.20
2008,10,15,15,21,8.20
2008,10,15,15,22,8.10
2008,10,15,15,23,8.10
2008,10,15,15,24,8.10
2008,10,15,15,25,8.10
2008,10,15,15,26,8.20
2008,10,15,15,27,8.20
2008,10,15,15,28,8.10
2008,10,15,15,29,8.10
2008,10,15,15,30,8.10
2008,10,15,15,31,8.10
2008,10,15,15,32,8.10
2008,10,15,15,33,8.10
2008,10,15,15,34,8.20
2008,10,15,15,35,8.20
2008,10,15,15,36,8.20
2008,10,15,15,37,8.20
2008,10,15,15,38,8.20
2008,10,15,15,39,8.20
2008,10,15,15,40,8.20
2008,10,15,15,41,8.20
2008,10,15,15,42,8.20
2008,10,15,15,43,8.20
2008,10,15,15,44,8.20
2008,10,15,15,45,8.10
2008,10,15,15,46,8.10
2008,10,15,15,47,8.10
2008,10,15,15,48,8.10
2008,10,15,15,49,8.10
2008,10,15,15,50,8.10
2008,10,15,15,51,8.10
2008,10,15,15,52,8.10
2008,10,15,15,53,8.10
2008,10,15,15,54,8.10
2008,10,15,15,55,8.10
2008,10,15,15,56,8.10
2008,10,15,15,57,8.10
2008,10,15,15,58,8.00
2008,10,15,15,59,8.00
2008,10,15,16,00,8.00
2008,10,15,16,01,8.00
2008,10,15,16,02,8.10
2008,10,15,16,03,8.10
2008,10,15,16,04,8.10
2008,10,15,16,05,8.10
2008,10,15,16,06,8.10
2008,10,15,16,07,8.00
2008,10,15,16,08,8.00
2008,10,15,16,09,7.90
2008,10,15,16,10,7.90
2008,10,15,16,11,7.90
2008,10,15,16,12,7.90
2008,10,15,16,13,7.80
2008,10,15,16,14,7.80
2008,10,15,16,15,7.90
2008,10,15,16,16,7.90
2008,10,15,16,17,7.90
2008,10,15,16,18,7.90
2008,10,15,16,19,7.90
2008,10,15,16,20,7.90
2008,10,15,16,21,7.90
2008,10,15,16,22,7.90
2008,10,15,16,23,7.90
2008,10,15,16,24,7.90
2008,10,15,16,25,7.90
2008,10,15,16,26,7.80
2008,10,15,16,27,7.80
2008,10,15,16,28,7.80
2008,10,15,16,29,7.80
2008,10,15,16,30,7.80
2008,10,15,16,31,7.80
2008,10,15,16,32,7.80
2008,10,15,16,33,7.80
2008,10,15,16,34,7.80
2008,10,15,16,35,7.80
2008,10,15,16,36,7.90
2008,10,15,16,37,7.90
2008,10,15,16,38,7.90
2008,10,15,16,39,7.90
2008,10,15,16,40,7.90
2008,10,15,16,41,7.90
2008,10,15,16,42,7.80
2008,10,15,16,43,7.80
2008,10,15,16,44,7.80
2008,10,15,16,45,7.80
2008,10,15,16,46,7.80
2008,10,15,16,47,7.80
2008,10,15,16,48,7.80
2008,10,15,16,49,7.80
2008,10,15,16,50,7.80
2008,10,15,16,51,7.80
2008,10,15,16,52,7.80
2008,10,15,16,53,7.80
2008,10,15,16,54,7.80
2008,10,15,16,55,7.80
2008,10,15,16,56,7.80
2008,10,15,16,57,7.80
2008,10,15,16,58,7.80
2008,10,15,16,59,7.80
2008,10,15,17,00,7.80
2008,10,15,17,01,7.80
2008,10,15,17,02,7.80
2008,10,15,17,03,7.80
2008,10,15,17,04,7.80
2008,10,15,17,05,7.80
2008,10,15,17,06,7.80
2008,10,15,17,07,7.80
2008,10,15,17,08,7.80
2008,10,15,17,09,7.80
2008,10,15,17,10,7.80
2008,10,15,17,11,7.80
2008,10,15,17,12,7.80
2008,10,15,17,13,7.80
2008,10,15,17,14,7.80
2008,10,15,17,15,7.80
2008,10,15,17,16,7.80
2008,10,15,17,17,7.80
2008,10,15,17,18,7.80
2008,10,15,17,19,7.80
2008,10,15,17,20,7.80
2008,10,15,17,21,7.80
2008,10,15,17,22,7.80
2008,10,15,17,23,7.80
2008,10,15,17,24,7.80
2008,10,15,17,25,7.80
2008,10,15,17,26,7.80
2008,10,15,17,27,7.80
2008,10,15,17,28,7.80
2008,10,15,17,29,7.80
2008,10,15,17,30,7.80
2008,10,15,17,31,7.80
2008,10,15,17,32,7.80
2008,10,15,17,33,7.80
2008,10,15,17,34,7.80
2008,10,15,17,35,7.80
2008,10,15,17,36,7.80
2008,10,15,17,37,7.80
2008,10,15,17,38,7.80
2008,10,15,17,39,7.80
2008,10,15,17,40,7.80
2008,10,15,17,41,7.80
2008,10,15,17,42,7.80
2008,10,15,17,43,7.80
2008,10,15,17,44,7.80
2008,10,15,17,45,7.80
2008,10,15,17,46,7.80
2008,10,15,17,47,7.80
2008,10,15,17,48,7.80
2008,10,15,17,49,7.80
2008,10,15,17,50,7.80
2008,10,15,17,51,7.80
2008,10,15,17,52,7.80
2008,10,15,17,53,7.80
2008,10,15,17,54,7.80
2008,10,15,17,55,7.80
2008,10,15,17,56,7.80
2008,10,15,17,57,7.80
2008,10,15,17,58,7.80
2008,10,15,17,59,7.80
2008,10,15,18,00,7.80
2008,10,15,18,01,7.80
2008,10,15,18,02,7.80
2008,10,15,18,03,7.80
2008,10,15,18,04,7.70
2008,10,15,18,05,7.70
2008,10,15,18,06,7.70